Location: Fort Worth, Tx
(32.7431°N, 97.3695°W)
Time: 11:26:36
(UTC-04:00)

Vanguard 2 Rocket - Pass Details

Date: 28 February 2024
Orbit: 555 x 3307 km, 32.9° (Epoch: 23 April)

Event Time Altitude Azimuth Distance (km) Brightness Sun altitude
Rises 22:51:16 0° 277° (W) 6,566 12.0 -43.3°
Reaches altitude 10° 22:56:55 10° 264° (W) 5,879 11.5 -44.4°
Maximum altitude 23:09:33 22° 222° (SW) 5,256 10.7 -46.8°
Enters shadow 23:19:39 15° 188° (S) 5,768 10.7 -48.7°
